GW2134 Weather Reports


time (UTC)temp
C
wind
direction
speed
KPH
gust
KPH
rain 1hr
cm
rain 24hr
cm
rain mn
cm
humidity
%
barometer
mb
20260509043055 11 346 0.0 4.8 0.00 0.00 0.00 72 1020.1
20260509041551 11 0 0.0 1.6 0.00 0.00 0.00 71 1020.1
20260509040106 11 0 0.0 3.2 0.00 0.00 0.00 70 1020.2
20260509034555 11 320 4.8 12.9 0.00 0.00 0.00 70 1020.0
20260509033114 11 319 6.4 9.7 0.00 0.00 0.00 72 1020.1
20260509031558 10 0 0.0 3.2 0.00 0.00 0.00 73 1020.0
20260509030055 10 0 0.0 0.0 0.00 0.00 0.00 75 1020.1
20260509024601 10 355 3.2 8.0 0.00 0.00 0.00 75 1020.0
20260509023050 10 346 1.6 3.2 0.00 0.00 0.00 76 1020.0
20260509021553 10 0 0.0 1.6 0.00 0.00 0.00 76 1020.1
20260509020105 10 0 0.0 6.4 0.00 0.00 0.00 76 1019.9
20260509014550 10 11 1.6 4.8 0.00 0.00 0.00 76 1020.0
20260509013056 10 0 0.0 3.2 0.00 0.00 0.00 75 1020.0
20260509011558 11 200 0.0 1.6 0.00 0.00 0.00 74 1020.0
20260509010049 11 0 0.0 1.6 0.00 0.00 0.00 74 1020.0
20260509004552 11 330 3.2 6.4 0.00 0.00 0.00 74 1019.9
20260509003056 11 0 0.0 3.2 0.00 0.00 0.00 72 1020.0
20260509001551 11 0 0.0 0.0 0.00 0.00 0.00 71 1019.9
20260509000051 11 0 0.0 6.4 0.00 0.00 0.00 71 1019.8
20260508234550 11 322 3.2 8.0 0.00 0.00 0.00 70 1019.7
20260508233058 11 355 4.8 8.0 0.00 0.00 0.00 68 1019.7
20260508231556 11 330 4.8 8.0 0.00 0.00 0.00 69 1019.8
20260508230055 11 0 0.0 8.0 0.00 0.00 0.00 70 1019.8
20260508224555 11 360 6.4 8.0 0.00 0.00 0.00 70 1019.7
20260508223053 11 21 1.6 4.8 0.00 0.00 0.00 72 1019.9
20260508221555 11 312 0.0 1.6 0.00 0.00 0.00 73 1019.9
20260508214554 11 0 1.6 4.8 0.00 0.00 0.00 73 1019.8
20260508213100 11 0 0.0 1.6 0.00 0.00 0.00 73 1019.7
20260508211556 11 0 0.0 8.0 0.00 0.00 0.00 72 1019.6
20260508210054 11 355 4.8 9.7 0.00 0.00 0.00 73 1019.5
20260508204554 11 355 0.0 4.8 0.00 0.00 0.00 71 1019.6
20260508203054 12 0 0.0 8.0 0.00 0.00 0.00 69 1019.6
20260508201553 12 349 4.8 8.0 0.00 0.00 0.00 68 1019.6
20260508200053 12 355 4.8 8.0 0.00 0.00 0.00 67 1019.6
20260508194604 12 25 4.8 11.3 0.00 0.00 0.00 67 1019.4
20260508193114 12 333 6.4 11.3 0.00 0.00 0.00 66 1019.2
20260508191604 12 24 4.8 14.5 0.00 0.00 0.00 66 1019.1
20260508190109 12 336 6.4 9.7 0.00 0.00 0.00 70 1019.0
20260508184555 12 344 6.4 9.7 0.00 0.00 0.00 75 1018.8
20260508183058 13 224 4.8 8.0 0.00 0.00 0.00 75 1018.6
20260508181558 15 0 0.0 3.2 0.00 0.00 0.00 72 1018.6
20260508174553 16 0 0.0 1.6 0.00 0.00 0.00 69 1018.3
20260508173055 16 0 0.0 4.8 0.00 0.00 0.00 69 1018.2
20260508171555 16 112 0.0 4.8 0.00 0.00 0.00 69 1018.2
20260508170059 16 0 0.0 4.8 0.00 0.00 0.00 69 1018.2
20260508164556 16 0 1.6 4.8 0.00 0.00 0.00 70 1018.0
20260508163103 16 123 1.6 8.0 0.00 0.00 0.00 70 1018.1
20260508161558 16 0 0.0 11.3 0.00 0.00 0.00 69 1018.0
20260508160051 16 20 3.2 9.7 0.00 0.00 0.00 69 1017.9
20260508154555 16 282 3.2 16.1 0.00 0.00 0.00 68 1017.8
20260508153104 16 115 0.0 6.4 0.00 0.00 0.00 67 1017.7
20260508151551 17 26 1.6 9.7 0.00 0.00 0.00 66 1017.6
20260508150054 17 126 0.0 6.4 0.00 0.00 0.00 66 1017.8
20260508144553 17 157 1.6 8.0 0.00 0.00 0.00 64 1017.9
20260508143115 17 143 1.6 14.5 0.00 0.00 0.00 62 1017.9
20260508141558 17 341 1.6 9.7 0.00 0.00 0.00 62 1017.9
20260508134553 17 99 4.8 11.3 0.00 0.00 0.00 62 1018.0
20260508133057 17 202 3.2 14.5 0.00 0.00 0.00 62 1018.0
20260508131550 17 104 3.2 11.3 0.00 0.00 0.00 64 1018.1
20260508130051 17 43 1.6 8.0 0.00 0.00 0.00 63 1018.1
20260508124551 17 100 3.2 12.9 0.00 0.00 0.00 62 1018.1
20260508123055 17 0 1.6 12.9 0.00 0.00 0.00 61 1018.2
20260508121554 17 0 4.8 16.1 0.00 0.00 0.00 61 1018.3
20260508120101 17 65 1.6 12.9 0.00 0.00 0.00 62 1018.3
20260508114603 16 360 3.2 12.9 0.00 0.00 0.00 62 1018.4
20260508113104 16 338 1.6 14.5 0.00 0.00 0.00 63 1018.3
20260508111601 16 92 3.2 12.9 0.00 0.00 0.00 63 1018.4
20260508104554 16 107 1.6 16.1 0.00 0.00 0.00 63 1018.4
20260508103057 16 0 0.0 14.5 0.00 0.00 0.00 64 1018.6
20260508101555 16 85 0.0 14.5 0.00 0.00 0.00 61 1018.5
20260508100123 16 327 9.7 19.3 0.00 0.00 0.00 63 1018.6
20260508094553 16 92 1.6 16.1 0.00 0.00 0.00 66 1018.5
20260508093053 15 89 3.2 12.9 0.00 0.00 0.00 67 1018.5
20260508091607 15 334 0.0 8.0 0.00 0.00 0.00 72 1018.5
20260508090052 15 0 0.0 9.7 0.00 0.00 0.00 73 1018.5
20260508084552 15 72 0.0 4.8 0.00 0.00 0.00 74 1018.5
20260508083052 14 0 4.8 14.5 0.00 0.00 0.00 73 1018.5
20260508081611 15 331 1.6 19.3 0.00 0.00 0.00 74 1018.4
20260508074556 13 185 3.2 12.9 0.00 0.00 0.00 78 1018.3
20260508073052 15 38 4.8 12.9 0.00 0.00 0.00 72 1018.1
20260508071553 15 125 0.0 6.4 0.00 0.00 0.00 72 1017.7
20260508070059 14 0 1.6 4.8 0.00 0.00 0.00 73 1017.8
20260508064558 13 0 0.0 6.4 0.00 0.00 0.00 77 1017.8
20260508063059 12 0 0.0 6.4 0.00 0.00 0.00 79 1017.7
20260508061604 12 0 0.0 4.8 0.00 0.00 0.00 79 1017.5
20260508060111 11 0 0.0 1.6 0.00 0.00 0.00 79 1017.5
20260508054638 11 0 0.0 1.6 0.00 0.00 0.00 80 1017.4
20260508053055 11 165 1.6 6.4 0.00 0.00 0.00 79 1017.2
20260508051550 11 0 0.0 1.6 0.00 0.00 0.00 79 1017.2
20260508050053 11 0 0.0 1.6 0.00 0.00 0.00 79 1017.0
20260508044550 11 0 0.0 4.8 0.00 0.00 0.00 79 1017.0